This is the latest recevied weather packets stored in our database for station/object TULLARI. If no packets are shown the sender has not sent any weather packets the latest 1 day(s).
| Time | Temp. | Humidity | Pressure | Rain* | Wind** | Luminosity | Snow |
|---|---|---|---|---|---|---|---|
| 1778083647 | 8.33° C | 65% | 1014.4 hPa | - | - | - | - |
| 1778075247 | 7.78° C | 66% | 1014.9 hPa | - | - | - | - |
| 1778071646 | 8.33° C | 66% | 1014.9 hPa | - | - | - | - |
| 1778070446 | 7.78° C | 72% | 1014.9 hPa | - | - | - | - |
| 1778066847 | 7.78° C | 74% | 1015 hPa | - | - | - | - |
| 1778065646 | 8.33° C | 72% | 1015 hPa | - | - | - | - |
| 1778063248 | 8.33° C | 72% | 1014.9 hPa | - | - | - | - |
| 1778058448 | 7.78° C | 75% | 1014.3 hPa | - | - | - | - |
| 1778057249 | 7.22° C | 85% | 1014.1 hPa | - | - | - | - |
| 1778056049 | 7.22° C | 82% | 1014.1 hPa | - | - | - | - |
| 1778054848 | 7.22° C | 82% | 1014.1 hPa | - | - | - | - |
| 1778053648 | 6.67° C | 83% | 1014 hPa | - | - | - | - |
| 1778051248 | 6.67° C | 84% | 1013.7 hPa | - | - | - | - |
| 1778050048 | 6.11° C | 81% | 1013.5 hPa | - | - | - | - |
| 1778047648 | 5.56° C | 83% | 1013.2 hPa | - | - | - | - |
| 1778046447 | 5.56° C | 82% | 1013.1 hPa | - | - | - | - |
| 1778044047 | 5° C | 78% | 1012.7 hPa | - | - | - | - |
| 1778042848 | 5° C | 76% | 1012.5 hPa | - | - | - | - |
| 1778041647 | 5.56° C | 74% | 1012.2 hPa | - | - | - | - |
| 1778039248 | 5° C | 77% | 1011.9 hPa | - | - | - | - |
| 1778038047 | 5° C | 79% | 1011.6 hPa | - | - | - | - |
| 1778036847 | 5° C | 80% | 1011.5 hPa | - | - | - | - |
| 1778035647 | 4.44° C | 83% | 1011.3 hPa | - | - | - | - |
| 1778034447 | 5° C | 83% | 1011.2 hPa | - | - | - | - |
| 1778033246 | 5° C | 85% | 1011.1 hPa | - | - | - | - |
* Rain since midnight (hover to see other rain measurements)
** Current wind speed in m/s (hover to see current wind gust speed)